Вернуться в каталог

FENGYUN 1C DEB

АктивенPO
NORAD 41009·DEBRIS·🇨🇳 China

Запущен May 10, 1999 с Taiyuan Satellite Launch Center

Loading…

Ближайшие Пролёты (ближайшие 24 часа)

TLE

СвежийSource: Space-Track

Эпоха: Sep 13, 2026, 05:35 UTC

1 41009U 99025EXP 26256.23319517  .00005155  00000-0  12009-2 0  9991
2 41009  99.2071 262.9134 0012293 348.6517  11.4398 14.55269143629746

Отслеживайте FENGYUN 1C DEB в реальном времени с AllMySat

Download on the App Store